Weather History for KLJF - December, 2013

Change the Weather History Date:

Monday, December 9, 2013

  Actual Average Record
Temperature  
Mean Temperature -1 °F -  
Max Temperature 5 °F 26 °F 54 °F (1990)
Min Temperature -7 °F 10 °F -16 °F (1958)
Degree Days  
Heating Degree Days 66    
Moisture  
Dew Point -6 °F    
Average Humidity 81    
Maximum Humidity 92    
Minimum Humidity 66    
Precipitation  
Precipitation 0.00 in - - ()
Sea Level Pressure  
Sea Level Pressure 29.99 in    
Wind  
Wind Speed 7 mph (WSW)    
Max Wind Speed 16 mph    
Max Gust Speed 23 mph    
Visibility 9 miles    
Events Snow    
Averages and records for this station are not official NWS values.
T = Trace of Precipitation, MM = Missing Value Source: NWS Daily Summary

Daily Weather History Graph

Daily Weather History Graph

Search for Another Location

Airport or City:

Trip Planner

Search our weather history database for the weather conditions in past years. The results will help you decide how hot, cold, wet, or windy it might be!

Date:

Astronomy

Dec. 09, 2013 Rise Set
Actual Time 7:44 AM CST 4:36 PM CST
Civil Twilight 7:11 AM CST 5:09 PM CST
Nautical Twilight 6:34 AM CST 5:46 PM CST
Astronomical Twilight 5:58 AM CST 6:22 PM CST
Moon 12:22 PM CST (12/9) No Moon Set
Length of Visible Light 9h 58m
Length of Day
8h 51m
Waxing Crescent, 51% of the Moon is Illuminated
Dec 9
Waxing Crescent
Dec 17
Full
Dec 25
Last Quarter
Jan 1
New
Jan 7
First Quarter

Hourly Weather History & Observations

Time (CST) Temp. Windchill Dew Point Humidity Pressure Visibility Wind Dir Wind Speed Gust Speed Precip Events Conditions
12:12 AM 5.0 °F -2.1 °F 3.2 °F 92% 30.00 in 10.0 mi WSW 3.5 mph - N/A   Scattered Clouds
12:33 AM 3.2 °F -4.2 °F 1.4 °F 92% 30.00 in 10.0 mi WSW 3.5 mph - N/A   Scattered Clouds
12:53 AM 3.2 °F - 1.4 °F 92% 29.99 in 10.0 mi Calm Calm - N/A   Clear
1:12 AM 3.2 °F - 1.4 °F 92% 29.99 in 10.0 mi Calm Calm - N/A   Clear
1:33 AM 3.2 °F -4.2 °F 1.4 °F 92% 29.98 in 10.0 mi WSW 3.5 mph - N/A   Clear
1:53 AM 3.2 °F -7.8 °F 1.4 °F 92% 29.99 in 10.0 mi West 5.8 mph - N/A   Scattered Clouds
2:12 AM 3.2 °F -7.8 °F 1.4 °F 92% 29.99 in 7.0 mi West 5.8 mph - N/A   Mostly Cloudy
2:33 AM 3.2 °F -7.8 °F 1.4 °F 92% 29.99 in 10.0 mi West 5.8 mph - N/A   Scattered Clouds
2:53 AM 1.4 °F -11.3 °F -0.4 °F 92% 29.98 in 10.0 mi West 6.9 mph - N/A   Clear
3:12 AM 1.4 °F -9.9 °F -0.4 °F 92% 29.99 in 10.0 mi West 5.8 mph - N/A   Clear
3:33 AM 1.4 °F -11.3 °F -2.2 °F 85% 29.98 in 10.0 mi West 6.9 mph - N/A   Clear
3:53 AM 1.4 °F -12.5 °F -2.2 °F 85% 29.97 in 10.0 mi West 8.1 mph - N/A   Clear
4:13 AM -0.4 °F -14.7 °F -2.2 °F 92% 29.98 in 10.0 mi West 8.1 mph - N/A   Clear
4:32 AM -0.4 °F -15.7 °F -4.0 °F 85% 29.98 in 10.0 mi West 9.2 mph - N/A   Clear
4:53 AM -0.4 °F -16.7 °F -4.0 °F 85% 29.98 in 10.0 mi West 10.4 mph - N/A   Mostly Cloudy
5:13 AM -2.2 °F -16.8 °F -5.8 °F 85% 29.98 in 10.0 mi West 8.1 mph - N/A   Overcast
5:32 AM -2.2 °F -18.9 °F -5.8 °F 85% 29.99 in 10.0 mi West 10.4 mph - N/A   Scattered Clouds
5:53 AM -4.0 °F -20.2 °F -7.6 °F 85% 29.99 in 10.0 mi West 9.2 mph 18.4 mph N/A   Clear
6:13 AM -5.8 °F -26.0 °F -9.4 °F 84% 29.99 in 10.0 mi West 13.8 mph - N/A   Clear
6:32 AM -5.8 °F -26.0 °F -9.4 °F 84% 30.00 in 10.0 mi West 13.8 mph 19.6 mph N/A   Clear
6:53 AM -5.8 °F -23.4 °F -9.4 °F 84% 30.01 in 10.0 mi West 10.4 mph 19.6 mph N/A   Mostly Cloudy
7:13 AM -5.8 °F -23.4 °F -9.4 °F 84% 30.03 in 10.0 mi West 10.4 mph - N/A   Mostly Cloudy
7:32 AM -7.6 °F -25.7 °F -11.2 °F 84% 30.04 in 10.0 mi West 10.4 mph - N/A   Scattered Clouds
7:53 AM -7.6 °F -23.4 °F -11.2 °F 84% 30.03 in 10.0 mi West 8.1 mph - N/A   Scattered Clouds
8:12 AM -7.6 °F -25.7 °F -11.2 °F 84% 30.04 in 10.0 mi West 10.4 mph - N/A   Mostly Cloudy
8:33 AM -7.6 °F -24.6 °F -11.2 °F 84% 30.05 in 10.0 mi West 9.2 mph 17.3 mph N/A   Overcast
8:53 AM -5.8 °F -26.8 °F -11.2 °F 77% 30.05 in 10.0 mi West 15.0 mph 18.4 mph N/A   Overcast
9:12 AM -5.8 °F -24.4 °F -9.4 °F 84% 30.05 in 10.0 mi West 11.5 mph 21.9 mph N/A   Mostly Cloudy
9:33 AM -5.8 °F -26.0 °F -9.4 °F 84% 30.06 in 10.0 mi West 13.8 mph 20.7 mph N/A   Scattered Clouds
9:53 AM -5.8 °F -24.4 °F -9.4 °F 84% 30.07 in 10.0 mi West 11.5 mph 19.6 mph N/A   Scattered Clouds
10:12 AM -5.8 °F -26.8 °F -9.4 °F 84% 30.08 in 10.0 mi West 15.0 mph 20.7 mph N/A   Scattered Clouds
10:33 AM -4.0 °F -23.7 °F -9.4 °F 78% 30.08 in 10.0 mi West 13.8 mph 21.9 mph N/A   Mostly Cloudy
10:53 AM -4.0 °F -24.5 °F -9.4 °F 78% 30.08 in 7.0 mi West 15.0 mph 21.9 mph N/A   Overcast
11:12 AM -2.2 °F -21.5 °F -9.4 °F 71% 30.08 in 5.0 mi West 13.8 mph 23.0 mph N/A   Haze
11:33 AM -2.2 °F -22.2 °F -9.4 °F 71% 30.08 in 5.0 mi West 15.0 mph 21.9 mph N/A   Haze
11:53 AM -2.2 °F -22.9 °F -9.4 °F 71% 30.07 in 7.0 mi West 16.1 mph 19.6 mph N/A   Overcast
12:12 PM -2.2 °F -18.9 °F -9.4 °F 71% 30.08 in 7.0 mi West 10.4 mph 20.7 mph N/A   Overcast
12:33 PM -2.2 °F -22.2 °F -9.4 °F 71% 30.07 in 7.0 mi West 15.0 mph 19.6 mph N/A   Overcast
12:53 PM -2.2 °F -18.9 °F -9.4 °F 71% 30.06 in 7.0 mi West 10.4 mph 16.1 mph N/A   Overcast
1:12 PM -0.4 °F -16.7 °F -9.4 °F 66% 30.06 in 10.0 mi West 10.4 mph - N/A   Mostly Cloudy
1:33 PM -0.4 °F -18.4 °F -9.4 °F 66% 30.06 in 10.0 mi West 12.7 mph 18.4 mph N/A   Mostly Cloudy
1:53 PM -0.4 °F -18.4 °F -9.4 °F 66% 30.05 in 10.0 mi West 12.7 mph 17.3 mph N/A   Scattered Clouds
2:12 PM -0.4 °F -18.4 °F -9.4 °F 66% 30.05 in 10.0 mi West 12.7 mph - N/A   Clear
2:33 PM -0.4 °F -13.4 °F -9.4 °F 66% 30.05 in 10.0 mi West 6.9 mph - N/A   Scattered Clouds
2:52 PM -0.4 °F -16.7 °F -7.6 °F 72% 30.04 in 10.0 mi WSW 10.4 mph - N/A   Scattered Clouds
3:13 PM -0.4 °F -13.4 °F -7.6 °F 72% 30.03 in 10.0 mi WSW 6.9 mph - N/A   Clear
3:32 PM -0.4 °F -14.7 °F -7.6 °F 72% 30.04 in 10.0 mi WSW 8.1 mph - N/A   Clear
3:53 PM -0.4 °F -13.4 °F -7.6 °F 72% 30.04 in 10.0 mi SW 6.9 mph - N/A   Clear
4:13 PM -0.4 °F -8.3 °F -7.6 °F 72% 30.05 in 10.0 mi SW 3.5 mph - N/A   Clear
4:32 PM -2.2 °F - -7.6 °F 78% 30.05 in 10.0 mi Calm Calm - N/A   Clear
4:53 PM -2.2 °F - -7.6 °F 78% 30.04 in 10.0 mi Calm Calm - N/A   Clear
5:13 PM -4.0 °F - -9.4 °F 78% 30.03 in 10.0 mi Calm Calm - N/A   Clear
5:32 PM -5.8 °F - -9.4 °F 84% 30.02 in 10.0 mi Calm Calm - N/A   Clear
5:53 PM -5.8 °F - -9.4 °F 84% 30.01 in 10.0 mi Calm Calm - N/A   Clear
6:13 PM -4.0 °F - -9.4 °F 78% 30.00 in 10.0 mi Calm Calm - N/A   Clear
6:32 PM -2.2 °F -10.4 °F -7.6 °F 78% 30.00 in 10.0 mi South 3.5 mph - N/A   Clear
6:53 PM -2.2 °F -10.4 °F -7.6 °F 78% 29.99 in 10.0 mi South 3.5 mph - N/A   Clear
7:13 PM -2.2 °F -12.5 °F -7.6 °F 78% 29.98 in 10.0 mi SSW 4.6 mph - N/A   Clear
7:32 PM -2.2 °F - -7.6 °F 78% 29.97 in 10.0 mi Calm Calm - N/A   Clear
7:53 PM -2.2 °F -10.4 °F -7.6 °F 78% 29.96 in 10.0 mi South 3.5 mph - N/A   Clear
8:13 PM -2.2 °F -12.5 °F -7.6 °F 78% 29.94 in 10.0 mi South 4.6 mph - N/A   Scattered Clouds
8:32 PM -2.2 °F -10.4 °F -7.6 °F 78% 29.93 in 10.0 mi South 3.5 mph - N/A   Scattered Clouds
8:53 PM -2.2 °F -10.4 °F -7.6 °F 78% 29.91 in 10.0 mi SSW 3.5 mph - N/A   Clear
9:13 PM -0.4 °F -8.3 °F -5.8 °F 78% 29.90 in 10.0 mi SSE 3.5 mph - N/A   Scattered Clouds
9:32 PM -0.4 °F -12.0 °F -5.8 °F 78% 29.88 in 10.0 mi SSE 5.8 mph - N/A   Mostly Cloudy
9:53 PM -0.4 °F -12.0 °F -5.8 °F 78% 29.85 in 10.0 mi SSE 5.8 mph - N/A   Mostly Cloudy
10:13 PM -0.4 °F -14.7 °F -5.8 °F 78% 29.83 in 10.0 mi SSE 8.1 mph - N/A   Mostly Cloudy
10:32 PM 1.4 °F -9.9 °F -4.0 °F 78% 29.82 in 10.0 mi South 5.8 mph - N/A   Overcast
10:53 PM 1.4 °F -8.3 °F -0.4 °F 92% 29.80 in 1.5 mi SSE 4.6 mph - N/A Snow Light Snow
11:12 PM 3.2 °F -4.2 °F -0.4 °F 85% 29.79 in 1.5 mi SSE 3.5 mph - N/A Snow Light Snow
11:33 PM 3.2 °F -4.2 °F 1.4 °F 92% 29.77 in 2.0 mi South 3.5 mph - N/A Snow Light Snow
11:53 PM 5.0 °F -5.6 °F 1.4 °F 85% 29.76 in 2.0 mi South 5.8 mph - N/A Snow Light Snow